Location: 81360 Arifat, France
(43.7204°N, 2.3408°E)
Time: 17:50:35
(UTC+02:00)

GHALIB - Pass Details

Date: 03 June 2022
Orbit: 510 x 523 km, 97.6° (Epoch: 29 June)

Event Time Altitude Azimuth Distance (km) Brightness Sun altitude
Exits shadow 04:41:47 13° 263° (W) 1,558 ? -13.0°
Maximum altitude 04:42:08 13° 269° (W) 1,551 ? -12.9°
Drops below altitude 10° 04:44:02 10° 299° (WNW) 1,757 ? -12.7°
Sets 04:47:07 0° 327° (NNW) 2,648 ? -12.4°
